Flag for Saudi Arabia Weather past 2 weeks in Qatif, Saudi Arabia

Now
95 °F

Clear.


Feels Like: 113 °F
Forecast: 84 / 111 °F
Wind: 5 mph from Northeast

Location: King Fahd International Airport

Current Time: Aug 30, 2015 at 9:55:53 PM

Latest Report: Aug 30, 2015 at 9:00 PM


Visibility: 10 mi

Pressure: 29.59 "Hg

Humidity: 60%

Dew point: 79 °F

Location of QatifLocation

Historic Weather in Qatif — Graph

°F

Qatif temperature yesterday

Maximum temperature yesterday: 117 °F (at 12:00 PM)
Minimum temperature yesterday: 88 °F (at 6:00 AM)
Average temperature yesterday: 100 °F

Past Weeks' High & Low Weather Summary

 TemperatureHumidityPressure
High118 °F (Aug 21, 1:00 PM)79% (Aug 20, 5:00 AM)29.62 "Hg (Aug 20, 5:00 AM)
Low82 °F (Aug 19, 3:00 AM)6% (Aug 25, 1:00 PM)29.47 "Hg (Aug 17, 3:00 PM)
Average99 °F35%29.55 "Hg
* Reported Aug 15 9:00 PM — Aug 30 9:00 PM, Qatif, Weather by CustomWeather, © 2015

Note: Actual official high and low records may vary slightly from our data, if they occured in-between our weather recording intervals... More about our weather records

Advertising

Qatif weather history for previous 24 hours

 ConditionsComfort  
Time TempWeatherWind HumidityBarometerVisibility
9:00 PM
Sun, Aug 30
95 °FClear.5 mph60%29.59 "Hg10 mi
8:00 PM97 °FClear.6 mph50%29.59 "Hg10 mi
7:00 PM99 °FClear.9 mph47%29.56 "Hg10 mi
6:00 PM102 °FSunny.12 mph33%29.56 "Hg10 mi
5:00 PM104 °FSunny.13 mph38%29.53 "Hg10 mi
4:00 PM109 °FSunny.16 mph19%29.56 "Hg10 mi
3:00 PM113 °FSunny.16 mph14%29.56 "Hg10 mi
2:00 PM113 °FSunny.15 mph15%29.56 "Hg10 mi
1:00 PM113 °FSunny.14 mph19%29.59 "Hg10 mi
12:00 PM113 °FPassing clouds.13 mph14%29.59 "HgN/A
11:00 AM115 °FSunny.15 mph10%29.62 "Hg10 mi
10:00 AM109 °FSunny.9 mph14%29.62 "Hg10 mi
9:00 AM106 °FSunny.8 mph17%29.62 "Hg10 mi
8:00 AM99 °FSunny.10 mph17%29.62 "Hg10 mi
7:00 AM93 °FSunny.10 mph21%29.62 "Hg10 mi
6:00 AM90 °FSunny.10 mph26%29.59 "Hg10 mi
5:00 AM90 °FClear.8 mph27%29.59 "Hg10 mi
4:00 AM90 °FClear.8 mph29%29.59 "Hg10 mi
3:00 AM91 °FClear.8 mph30%29.59 "Hg10 mi
2:00 AM91 °FClear.6 mph34%29.59 "Hg10 mi
1:00 AM91 °FClear.5 mph38%29.59 "Hg10 mi
12:00 AM91 °FClear.3 mph49%29.59 "Hg10 mi
11:00 PM
Sat, Aug 29
93 °FClear.3 mph49%29.59 "Hg10 mi
10:00 PM93 °FClear.3 mph49%29.62 "Hg10 mi
9:00 PM93 °FClear.6 mph49%29.62 "Hg10 mi
Weather by CustomWeather, © 2015

See weather overviewHow to use our weather pages